カタログに戻る

ELECTRON KICK STAGE R/B

運用中SSO
NORAD 54228·ROCKET BODY·🇺🇸 United States

打ち上げ Nov 4, 2022 から Rocket Lab Launch Complex 1

Loading…

次のパス (今後24時間)

TLE

最新Source: Space-Track

元期: Sep 14, 2026, 19:42 UTC

1 54228U 22147B   26257.82151144  .00019967  00000-0  57183-3 0  9994
2 54228  97.6299 279.9703 0007339 149.4815 210.6856 15.35942133212836

AllMySatでELECTRON KICK STAGE R/Bをリアルタイム追跡

Download on the App Store